GW4947 Weather Reports


time (UTC)temp
C
wind
direction
speed
KPH
gust
KPH
rain 1hr
cm
rain 24hr
cm
rain mn
cm
humidity
%
barometer
mb
20260508034823 28 144 1.6 1.6 0.00 0.00 0.53 81 1008.0
20260508034323 28 117 1.6 1.6 0.00 0.00 0.53 81 1008.0
20260508033823 28 175 3.2 4.8 0.00 0.00 0.53 81 1008.0
20260508033324 28 137 1.6 1.6 0.00 0.00 0.53 81 1008.0
20260508032826 28 91 3.2 3.2 0.00 0.00 0.53 81 1008.0
20260508032326 28 108 3.2 3.2 0.00 0.00 0.53 80 1008.0
20260508031825 28 166 4.8 8.0 0.00 0.00 0.53 80 1008.0
20260508031324 28 107 1.6 1.6 0.00 0.00 0.53 81 1008.0
20260508030822 28 12 3.2 3.2 0.00 0.00 0.53 81 1008.0
20260508030327 28 108 3.2 3.2 0.00 0.00 0.53 81 1008.0
20260508025823 28 72 1.6 3.2 0.00 0.00 0.53 81 1008.0
20260508025324 28 187 8.0 8.0 0.00 0.00 0.53 81 1008.0
20260508024823 28 76 3.2 3.2 0.00 0.00 0.53 82 1008.0
20260508024322 27 158 1.6 1.6 0.00 0.00 0.53 83 1008.0
20260508023822 27 119 1.6 3.2 0.00 0.00 0.53 83 1008.0
20260508023325 27 71 3.2 3.2 0.00 0.00 0.53 83 1008.0
20260508022823 27 59 3.2 3.2 0.00 0.00 0.53 83 1008.0
20260508022322 27 117 0.0 1.6 0.00 0.00 0.53 84 1008.0
20260508021823 27 54 1.6 1.6 0.00 0.00 0.53 84 1008.0
20260508021325 26 157 0.0 1.6 0.00 0.00 0.53 85 1008.0
20260508020822 26 265 3.2 4.8 0.00 0.00 0.53 86 1008.0
20260508020324 26 241 4.8 4.8 0.00 0.00 0.53 88 1008.0
20260508015822 26 156 1.6 3.2 0.00 0.00 0.53 89 1008.0
20260508015323 25 90 3.2 3.2 0.00 0.00 0.53 90 1008.0
20260508014823 25 146 3.2 3.2 0.00 0.00 0.53 91 1008.0
20260508014322 25 124 1.6 1.6 0.00 0.00 0.53 92 1008.0
20260508013823 25 60 3.2 3.2 0.00 0.00 0.53 93 1008.0
20260508013324 25 99 1.6 1.6 0.00 0.00 0.53 93 1008.0
20260508012823 25 119 1.6 1.6 0.00 0.00 0.53 93 1008.0
20260508012323 25 90 1.6 1.6 0.00 0.00 0.53 94 1008.0
20260508011824 24 74 1.6 1.6 0.00 0.00 0.53 94 1008.0
20260508011322 25 147 0.0 0.0 0.00 0.00 0.53 94 1008.0
20260508010823 24 119 0.0 1.6 0.00 0.00 0.53 94 1008.0
20260508010323 24 95 0.0 1.6 0.00 0.00 0.53 94 1008.0
20260508005824 25 11 3.2 3.2 0.00 0.00 0.53 94 1008.0
20260508005323 25 61 0.0 1.6 0.00 0.00 0.53 94 1008.0
20260508004822 24 117 0.0 0.0 0.00 0.00 0.53 94 1007.0
20260508004325 25 112 1.6 1.6 0.00 0.00 0.53 94 1008.0
20260508003824 24 113 0.0 0.0 0.00 0.00 0.53 94 1008.0
20260508003322 24 112 0.0 0.0 0.00 0.00 0.53 93 1008.0
20260508002825 24 96 1.6 1.6 0.00 0.00 0.53 93 1008.0
20260508002323 24 121 1.6 1.6 0.00 0.00 0.53 93 1008.0
20260508001822 24 121 0.0 0.0 0.00 0.00 0.53 93 1008.0
20260508001325 24 155 1.6 1.6 0.13 0.00 0.53 93 1008.0
20260508000824 24 125 0.0 0.0 0.13 0.00 0.53 93 1008.0
20260508000323 24 123 0.0 1.6 0.18 0.00 0.51 93 1008.0
20260507235824 24 112 1.6 3.2 0.30 0.00 0.51 93 1008.0
20260507235323 24 133 1.6 1.6 0.48 0.00 0.48 93 1008.0
20260507234825 25 104 0.0 1.6 0.48 0.00 0.46 94 1008.0
20260507234322 25 116 0.0 0.0 0.30 0.00 0.43 94 1008.0
20260507233824 24 119 0.0 0.0 0.13 0.00 0.41 94 1007.0
20260507233323 24 128 0.0 0.0 0.00 0.00 0.38 93 1007.0
20260507232825 25 124 1.6 1.6 0.00 0.00 0.38 94 1007.0
20260507232323 24 129 0.0 0.0 0.00 0.00 0.38 94 1007.0
20260507231823 24 157 1.6 1.6 0.00 0.00 0.38 93 1007.0
20260507231322 24 102 0.0 0.0 0.00 0.00 0.38 93 1007.0
20260507230822 24 152 3.2 3.2 0.00 0.00 0.38 93 1007.0
20260507230323 24 117 1.6 1.6 0.00 0.00 0.38 93 1007.0
20260507225824 24 132 1.6 1.6 0.00 0.00 0.38 93 1007.0
20260507225323 24 106 1.6 3.2 0.00 0.00 0.38 93 1007.0
20260507224823 25 129 0.0 0.0 0.00 0.00 0.38 93 1007.0
20260507224322 24 121 0.0 0.0 0.18 0.00 0.38 92 1007.0
20260507223822 25 119 1.6 1.6 0.48 0.00 0.38 92 1007.0
20260507223323 25 99 3.2 3.2 1.50 0.00 0.36 91 1007.0
20260507222822 25 88 1.6 1.6 1.80 0.00 0.30 90 1007.0
20260507222322 25 83 3.2 3.2 0.71 0.00 0.13 89 1007.0
20260507221823 25 60 3.2 4.8 0.00 0.00 0.00 87 1007.0
20260507221324 25 44 1.6 1.6 0.00 0.00 0.00 85 1007.0
20260507220822 26 110 3.2 3.2 0.00 0.00 0.00 85 1007.0
20260507220325 27 312 9.7 14.5 0.00 0.00 0.00 87 1007.0
20260507215825 26 324 1.6 3.2 0.00 0.00 0.00 87 1007.0
20260507215324 26 225 1.6 3.2 0.00 0.00 0.00 87 1007.0
20260507214822 26 90 1.6 3.2 0.00 0.00 0.00 87 1007.0
20260507214322 26 70 1.6 1.6 0.00 0.00 0.00 87 1007.0
20260507213822 26 199 3.2 3.2 0.00 0.00 0.00 87 1007.0
20260507213323 26 134 1.6 3.2 0.00 0.00 0.00 87 1007.0
20260507212826 26 162 1.6 1.6 0.00 0.00 0.00 87 1007.0
20260507212324 26 10 3.2 3.2 0.00 0.00 0.00 88 1007.0
20260507211823 26 124 1.6 1.6 0.00 0.00 0.00 87 1007.0
20260507211322 26 121 1.6 1.6 0.00 0.00 0.00 87 1007.0
20260507210822 26 101 0.0 1.6 0.00 0.00 0.00 87 1007.0
20260507210325 26 213 1.6 1.6 0.00 0.00 0.00 87 1007.0
20260507205822 26 147 1.6 3.2 0.00 0.00 0.00 87 1007.0
20260507205323 26 266 3.2 4.8 0.00 0.00 0.00 87 1007.0
20260507204824 27 213 3.2 3.2 0.00 0.00 0.00 86 1007.0
20260507204323 27 75 1.6 1.6 0.00 0.00 0.00 86 1007.0
20260507203824 27 244 4.8 4.8 0.00 0.00 0.00 86 1007.0
20260507203324 27 105 0.0 1.6 0.00 0.00 0.00 86 1007.0
20260507202825 27 121 0.0 0.0 0.00 0.00 0.00 86 1007.0
20260507202322 27 131 0.0 1.6 0.00 0.00 0.00 86 1007.0
20260507201823 27 133 1.6 1.6 0.00 0.00 0.00 85 1007.0
20260507201323 27 111 1.6 1.6 0.00 0.00 0.00 85 1007.0
20260507200824 28 147 3.2 4.8 0.00 0.00 0.00 85 1007.0
20260507200326 27 126 0.0 1.6 0.00 0.00 0.00 85 1007.0
20260507195822 27 116 1.6 1.6 0.00 0.00 0.00 85 1007.0
20260507195322 28 124 0.0 1.6 0.00 0.00 0.00 85 1007.0
20260507194823 28 91 1.6 1.6 0.00 0.00 0.00 85 1007.0
20260507194324 28 132 0.0 1.6 0.00 0.00 0.00 86 1007.0
20260507193823 28 112 1.6 1.6 0.00 0.00 0.00 86 1007.0
20260507193324 28 163 3.2 3.2 0.00 0.00 0.00 86 1008.0
20260507192824 27 131 1.6 1.6 0.00 0.00 0.00 86 1007.0
20260507192325 27 124 1.6 1.6 0.00 0.00 0.00 86 1007.0
20260507191823 28 137 1.6 1.6 0.00 0.00 0.00 85 1008.0
20260507191323 27 142 1.6 1.6 0.00 0.00 0.00 85 1008.0
20260507190823 28 150 1.6 1.6 0.00 0.00 0.00 85 1008.0
20260507190324 28 125 1.6 3.2 0.00 0.00 0.00 85 1008.0
20260507185823 28 154 1.6 1.6 0.00 0.00 0.00 85 1008.0
20260507185324 28 122 0.0 1.6 0.00 0.00 0.00 85 1008.0
20260507184825 27 122 0.0 1.6 0.00 0.00 0.00 86 1008.0
20260507184323 27 128 0.0 0.0 0.00 0.00 0.00 86 1008.0
20260507183826 27 127 0.0 0.0 0.00 0.00 0.00 86 1008.0
20260507183324 27 128 0.0 0.0 0.00 0.00 0.00 85 1008.0
20260507182827 28 133 0.0 1.6 0.00 0.00 0.00 85 1008.0
20260507182323 28 120 0.0 0.0 0.00 0.00 0.00 85 1008.0
20260507181823 28 127 0.0 0.0 0.00 0.00 0.00 84 1008.0
20260507181324 28 127 0.0 0.0 0.00 0.00 0.00 83 1008.0
20260507180824 28 128 0.0 0.0 0.00 0.00 0.00 82 1008.0
20260507180324 29 116 0.0 0.0 0.00 0.00 0.00 80 1008.0
20260507175824 29 119 0.0 0.0 0.00 0.00 0.00 80 1008.0
20260507175324 29 119 0.0 0.0 0.00 0.00 0.00 80 1008.0
20260507174824 29 121 0.0 0.0 0.00 0.00 0.00 80 1009.0
20260507174327 28 126 0.0 0.0 0.00 0.00 0.00 81 1009.0
20260507173825 28 134 1.6 1.6 0.00 0.00 0.00 81 1009.0
20260507173325 28 133 1.6 1.6 0.00 0.00 0.00 81 1009.0
20260507172826 28 136 1.6 1.6 0.00 0.00 0.00 80 1009.0
20260507172327 28 117 0.0 0.0 0.00 0.00 0.00 82 1009.0
20260507171824 28 101 1.6 1.6 0.00 0.00 0.00 83 1009.0
20260507171325 28 119 0.0 1.6 0.00 0.00 0.00 83 1008.0
20260507170824 28 106 1.6 3.2 0.00 0.00 0.00 82 1008.0
20260507170325 28 108 0.0 1.6 0.00 0.00 0.00 83 1008.0
20260507165823 28 93 1.6 3.2 0.00 0.00 0.00 82 1008.0
20260507165326 28 97 1.6 3.2 0.00 0.00 0.00 82 1008.0
20260507164824 28 95 1.6 1.6 0.00 0.00 0.00 82 1008.0
20260507164326 28 110 1.6 1.6 0.00 0.00 0.00 81 1008.0
20260507163824 28 93 1.6 1.6 0.00 0.00 0.00 81 1008.0
20260507163324 28 116 0.0 0.0 0.00 0.00 0.00 81 1008.0
20260507162826 28 97 3.2 3.2 0.00 0.00 0.00 80 1008.0
20260507162324 28 92 4.8 4.8 0.00 0.00 0.00 80 1008.0
20260507161822 28 180 3.2 3.2 0.00 0.00 0.00 80 1008.0
20260507161327 28 138 3.2 3.2 0.00 0.00 0.00 80 1008.0
20260507160825 28 91 1.6 1.6 0.00 0.00 0.00 79 1008.0
20260507160324 28 105 1.6 3.2 0.00 0.00 0.00 79 1008.0
20260507155825 28 108 1.6 1.6 0.00 0.00 0.00 79 1008.0
20260507155324 28 101 4.8 4.8 0.00 0.00 0.00 78 1008.0
20260507154824 28 120 1.6 1.6 0.00 0.00 0.00 78 1008.0
20260507154322 28 132 1.6 1.6 0.00 0.00 0.00 78 1008.0
20260507153825 29 122 1.6 1.6 0.00 0.00 0.00 78 1008.0
20260507153325 29 128 1.6 1.6 0.00 0.00 0.00 78 1008.0
20260507152826 29 164 3.2 3.2 0.00 0.00 0.00 78 1008.0
20260507152326 29 127 1.6 3.2 0.00 0.00 0.00 78 1008.0
20260507151825 29 101 3.2 3.2 0.00 0.00 0.00 77 1007.0
20260507151324 29 134 0.0 0.0 0.00 0.00 0.00 78 1007.0
20260507150823 29 112 0.0 0.0 0.00 0.00 0.00 77 1007.0
20260507150326 29 121 0.0 0.0 0.00 0.00 0.00 77 1007.0
20260507145825 29 130 1.6 1.6 0.00 0.00 0.00 77 1007.0
20260507145327 29 119 0.0 0.0 0.00 0.00 0.00 77 1007.0
20260507144825 29 94 1.6 3.2 0.00 0.00 0.00 77 1007.0
20260507144325 29 140 1.6 1.6 0.00 0.00 0.00 77 1007.0
20260507143825 29 105 1.6 1.6 0.00 0.00 0.00 77 1006.0
20260507143323 30 114 1.6 1.6 0.00 0.00 0.00 76 1006.0
20260507142825 30 121 1.6 1.6 0.00 0.00 0.00 76 1006.0
20260507142324 30 107 0.0 0.0 0.00 0.00 0.00 76 1006.0
20260507141825 30 116 0.0 0.0 0.00 0.00 0.00 76 1006.0
20260507141323 30 113 0.0 0.0 0.00 0.00 0.00 76 1006.0
20260507140828 30 125 0.0 0.0 0.00 0.00 0.00 75 1006.0
20260507140324 30 121 0.0 0.0 0.00 0.00 0.00 75 1005.0
20260507135824 30 126 0.0 1.6 0.00 0.00 0.00 75 1005.0
20260507135326 30 133 0.0 0.0 0.00 0.00 0.00 74 1005.0
20260507134826 30 131 1.6 1.6 0.00 0.00 0.00 75 1005.0
20260507134325 30 121 0.0 0.0 0.00 0.00 0.00 74 1005.0
20260507133822 30 56 6.4 8.0 0.00 0.00 0.00 74 1005.0
20260507133325 30 114 3.2 3.2 0.00 0.00 0.00 74 1005.0
20260507132827 30 108 1.6 3.2 0.00 0.00 0.00 74 1005.0
20260507132325 30 86 3.2 3.2 0.00 0.00 0.00 74 1005.0
20260507131825 30 111 0.0 1.6 0.00 0.00 0.00 74 1005.0
20260507131324 30 108 1.6 3.2 0.00 0.00 0.00 73 1005.0
20260507130825 30 140 3.2 4.8 0.00 0.00 0.00 73 1005.0
20260507130325 30 121 1.6 1.6 0.00 0.00 0.00 73 1005.0
20260507125823 30 117 4.8 4.8 0.00 0.00 0.00 73 1004.0
20260507125323 30 174 3.2 4.8 0.00 0.00 0.00 73 1004.0
20260507124824 31 145 1.6 1.6 0.00 0.00 0.00 73 1004.0
20260507124324 31 106 4.8 8.0 0.00 0.00 0.00 73 1004.0
20260507123824 31 77 4.8 4.8 0.00 0.00 0.00 72 1004.0
20260507123323 31 113 3.2 3.2 0.00 0.00 0.00 72 1004.0
20260507122824 31 325 3.2 4.8 0.00 0.00 0.00 72 1004.0
20260507122325 31 81 4.8 4.8 0.00 0.00 0.00 72 1004.0
20260507121826 31 121 1.6 3.2 0.00 0.00 0.00 72 1004.0
20260507121323 31 108 4.8 4.8 0.00 0.00 0.00 72 1004.0
20260507120824 31 93 6.4 8.0 0.00 0.00 0.00 72 1004.0
20260507120323 31 56 4.8 4.8 0.00 0.00 0.00 71 1004.0
20260507115824 31 111 3.2 3.2 0.00 0.00 0.00 71 1004.0
20260507115326 31 90 4.8 4.8 0.00 0.00 0.00 71 1004.0
20260507114823 31 50 4.8 4.8 0.00 0.00 0.00 71 1004.0
20260507114324 31 60 4.8 8.0 0.00 0.00 0.00 71 1004.0
20260507113827 31 81 8.0 9.7 0.00 0.00 0.00 71 1004.0
20260507113324 31 79 8.0 11.3 0.00 0.00 0.00 71 1004.0
20260507112823 31 93 1.6 1.6 0.00 0.00 0.00 71 1004.0
20260507112324 31 105 3.2 4.8 0.00 0.00 0.00 71 1004.0
20260507111828 31 80 4.8 4.8 0.00 0.00 0.00 71 1004.0
20260507111325 31 113 6.4 11.3 0.00 0.00 0.00 71 1004.0
20260507110827 32 110 1.6 3.2 0.00 0.00 0.00 71 1004.0
20260507110322 32 88 1.6 1.6 0.00 0.00 0.00 71 1004.0
20260507105823 31 75 8.0 9.7 0.00 0.00 0.00 71 1004.0
20260507105325 32 95 6.4 8.0 0.00 0.00 0.00 71 1004.0
20260507104824 32 46 8.0 9.7 0.00 0.00 0.00 70 1004.0
20260507104323 32 145 6.4 9.7 0.00 0.00 0.00 69 1004.0
20260507103828 32 133 11.3 16.1 0.00 0.00 0.00 69 1004.0
20260507103325 33 94 6.4 8.0 0.00 0.00 0.00 67 1004.0
20260507102824 34 129 6.4 9.7 0.00 0.00 0.00 64 1004.0
20260507102324 34 86 3.2 4.8 0.00 0.00 0.00 59 1004.0
20260507101827 35 119 1.6 3.2 0.00 0.00 0.00 58 1004.0
20260507101323 36 84 1.6 1.6 0.00 0.00 0.00 56 1004.0
20260507100827 36 111 1.6 1.6 0.00 0.00 0.00 53 1004.0
20260507100325 36 111 0.0 0.0 0.00 0.00 0.00 55 1004.0
20260507095826 36 109 1.6 1.6 0.00 0.00 0.00 54 1004.0
20260507095326 36 33 1.6 3.2 0.00 0.00 0.00 55 1004.0
20260507094824 36 113 1.6 3.2 0.00 0.00 0.00 55 1004.0
20260507094324 36 79 3.2 4.8 0.00 0.00 0.00 54 1004.0
20260507093824 37 93 1.6 1.6 0.00 0.00 0.00 53 1004.0
20260507093326 38 121 4.8 4.8 0.00 0.00 0.00 50 1004.0
20260507092824 37 131 0.0 1.6 0.00 0.00 0.00 52 1004.0
20260507092327 36 77 3.2 4.8 0.00 0.00 0.00 54 1004.0
20260507091826 36 260 1.6 3.2 0.00 0.00 0.00 54 1004.0
20260507091323 35 100 1.6 3.2 0.00 0.00 0.00 57 1004.0
20260507090826 35 109 1.6 3.2 0.00 0.00 0.00 58 1004.0
20260507090328 35 103 1.6 1.6 0.00 0.00 0.00 58 1005.0
20260507085823 35 124 1.6 1.6 0.00 0.00 0.00 57 1005.0
20260507085327 36 121 1.6 1.6 0.00 0.00 0.00 57 1005.0
20260507084824 36 94 1.6 1.6 0.00 0.00 0.00 55 1005.0
20260507084324 36 123 1.6 1.6 0.00 0.00 0.00 55 1005.0
20260507083827 36 106 1.6 1.6 0.00 0.00 0.00 55 1005.0
20260507083322 36 59 3.2 4.8 0.00 0.00 0.00 54 1005.0
20260507082822 36 109 0.0 0.0 0.00 0.00 0.00 54 1005.0
20260507082326 37 108 3.2 3.2 0.00 0.00 0.00 52 1005.0
20260507081825 37 349 4.8 4.8 0.00 0.00 0.00 53 1005.0
20260507081324 37 328 4.8 4.8 0.00 0.00 0.00 53 1005.0
20260507080825 37 112 1.6 1.6 0.00 0.00 0.00 53 1005.0
20260507080326 36 111 3.2 3.2 0.00 0.00 0.00 54 1005.0
20260507075824 36 119 1.6 3.2 0.00 0.00 0.00 55 1005.0
20260507075323 37 108 3.2 3.2 0.00 0.00 0.00 54 1005.0
20260507074822 36 80 3.2 3.2 0.00 0.00 0.00 56 1005.0
20260507074323 36 170 1.6 1.6 0.00 0.00 0.00 56 1006.0
20260507073826 35 189 1.6 1.6 0.00 0.00 0.00 57 1006.0
20260507073325 35 157 4.8 8.0 0.00 0.00 0.00 57 1006.0
20260507072822 36 179 3.2 3.2 0.00 0.00 0.00 56 1006.0
20260507072323 35 25 6.4 8.0 0.00 0.00 0.00 57 1006.0
20260507071825 36 245 3.2 3.2 0.00 0.00 0.00 58 1006.0
20260507071324 36 127 0.0 0.0 0.00 0.00 0.00 57 1006.0
20260507070824 36 68 1.6 1.6 0.00 0.00 0.00 57 1006.0
20260507070323 36 3 3.2 4.8 0.00 0.00 0.00 58 1006.0
20260507065822 35 134 0.0 0.0 0.00 0.00 0.00 58 1006.0
20260507065324 35 131 1.6 3.2 0.00 0.00 0.00 58 1007.0
20260507064824 35 122 1.6 1.6 0.00 0.00 0.00 60 1007.0
20260507064325 34 174 1.6 1.6 0.00 0.00 0.00 61 1007.0
20260507063828 34 177 3.2 3.2 0.00 0.00 0.00 62 1007.0
20260507063324 35 140 1.6 1.6 0.00 0.00 0.00 61 1007.0
20260507062825 35 123 0.0 0.0 0.00 0.00 0.00 58 1007.0
20260507062327 34 299 4.8 4.8 0.00 0.00 0.00 60 1007.0
20260507061826 34 55 1.6 1.6 0.00 0.00 0.00 59 1007.0
20260507061327 35 110 0.0 1.6 0.00 0.00 0.00 60 1007.0
20260507060823 35 60 1.6 3.2 0.00 0.00 0.00 59 1007.0
20260507060324 33 160 3.2 4.8 0.00 0.00 0.00 62 1007.0
20260507055823 34 163 6.4 8.0 0.00 0.00 0.00 62 1008.0
20260507055323 33 162 1.6 3.2 0.00 0.00 0.00 62 1008.0
20260507054824 34 178 3.2 3.2 0.00 0.00 0.00 61 1008.0
20260507054323 35 118 3.2 3.2 0.00 0.00 0.00 58 1008.0
20260507053824 33 116 0.0 1.6 0.00 0.00 0.00 63 1008.0
20260507053327 33 101 1.6 1.6 0.00 0.00 0.00 63 1008.0
20260507052826 33 127 0.0 1.6 0.00 0.00 0.00 62 1008.0
20260507052325 32 17 4.8 4.8 0.00 0.00 0.00 66 1008.0
20260507051822 32 125 3.2 3.2 0.00 0.00 0.00 67 1008.0
20260507051324 32 110 0.0 0.0 0.00 0.00 0.00 68 1008.0
20260507050825 32 208 1.6 3.2 0.00 0.00 0.00 68 1008.0
20260507050324 32 32 3.2 3.2 0.00 0.00 0.00 69 1008.0
20260507045825 31 118 3.2 3.2 0.00 0.00 0.00 71 1009.0
20260507045323 31 156 0.0 1.6 0.00 0.00 0.00 73 1008.0
20260507044825 31 123 1.6 1.6 0.00 0.00 0.00 73 1008.0
20260507044323 32 115 4.8 8.0 0.00 0.00 0.00 69 1008.0
20260507043822 32 241 3.2 3.2 0.00 0.00 0.00 69 1009.0
20260507043324 31 117 0.0 0.0 0.00 0.00 0.00 70 1009.0
20260507042823 31 144 4.8 4.8 0.00 0.00 0.00 72 1009.0
20260507042326 31 308 3.2 3.2 0.00 0.00 0.00 72 1009.0
20260507041825 31 128 0.0 1.6 0.00 0.00 0.00 74 1009.0
20260507041323 31 114 1.6 3.2 0.00 0.00 0.00 73 1009.0
20260507040822 31 105 1.6 3.2 0.00 0.00 0.00 72 1009.0
20260507040325 31 150 4.8 4.8 0.00 0.00 0.00 72 1009.0
20260507035824 31 113 0.0 1.6 0.00 0.00 0.00 74 1009.0
20260507035324 30 165 1.6 3.2 0.00 0.00 0.00 75 1009.0